THOR ABLESTAR DEB, 268

Orbit data source: Space-Track

THOR ABLESTAR DEB, 268 is space debris in LEO originally from a launch on Thu, 29 Jun 1961 UTC launched from the Air Force Eastern Test Range (AFETR). Debris objects in space refer to the collection of defunct objects orbiting the Earth. Examples of debris include non-operational satellites, rocket bodies, and fragments generated from explosions, collisions, or faulty payload assembly.

Loading next visibility...
Identifier
268, 1961-015CN
Orbit
LEO
Country
Flag of USUS
Related business
Manufacturer
Unknown
Mission
Spacecraft
Bus & Motor
Unknown
Mass
Unknown
Launch date (UTC)
1961-06-29 (65 years ago)
Launch vehicle
Unknown
Launch site
Air Force Eastern Test Range (AFETR)
Object type
Payload
Rocket body
Debris
Shape & HBR
Unknown shape, 0.1 m
Radar Cross Section
Medium (>0.1 m² and <1 m²)

Expand to show TLE details & history
Last TLE update: 12 hours ago

TLE from 12 hours ago
0 THOR ABLESTAR DEB
1 00268U 61015CN  26174.81262069  .00000115  00000-0  47761-3 0  9998
2 00268  67.9374 193.8597 0646751 142.9417  36.3442 12.51778735954087
Epoch: 2026-06-23T19:30Z
TLE epoch observation values (Epoch: 2026-06-23T19:30:10.427Z)
Latitude
-3.80389°
Longitude
170.87358°
Altitude
1,063.901 km
Speed
7.503 km/s
True Right ascension
01h 01m 35s
True Declination
-3° 46' 56"
Sunlit
Object was in daylight at epoch
Visualization orbit readout
Latitude
Unknown
Longitude
Unknown
Altitude
Unknown
Speed
Unknown
Apparent Right ascension
Unknown
Apparent Declination
Unknown
Sunlit
N/A
Visualization observer readout
Local Sidereal Time
18:55:23
Azimuth
Unknown
Elevation
Unknown
Doppler factor
Unknown
Orbital elements
Apogee altitude
1,962.075 km
Perigee altitude
948.8 km
Semi-major axis
7,833.575 km
Eccentricity
0.06468
Inclination
67.9374°
RAAN
193.8597°
Arg. of periapsis
142.9417°
True anomaly
41.03605°
Mean anomaly
36.3442°
Eccentric anomaly
38.65904°
Mean motion
3.13042 °/min
Orbital period
115 mins
BSTAR
0.00047761

Documentation

Showing up to 5 results
|